Flag for Italy Weather past 2 weeks in Naples, Italy

Now
68 °F

Passing clouds.


Feels Like: 68 °F
Forecast: 54 / 71 °F
Wind: 13 mph from Northeast

Location: Naples / Capodichino

Current Time: Apr 19, 2015 at 4:25:27 PM

Latest Report: Apr 19, 2015 at 3:50 PM


Visibility: N/A

Pressure: 29.95 "Hg

Humidity: 38%

Dew point: 41 °F

Location of NaplesLocation

Historic Weather in Naples — Graph

°F

Naples temperature yesterday

Maximum temperature yesterday: 66 °F (at 5:20 PM)
Minimum temperature yesterday: 57 °F (at 11:20 PM)
Average temperature yesterday: 62 °F

Past Weeks' High & Low Weather Summary

 TemperatureHumidityPressure
High73 °F (Apr 17, 4:50 PM)100% (Apr 5, 6:20 AM)30.42 "Hg (Apr 5, 6:20 AM)
Low39 °F (Apr 7, 6:50 AM)31% (Apr 8, 12:20 PM)29.62 "Hg (Apr 5, 5:20 AM)
Average57 °F70%30.16 "Hg
* Reported Apr 4 2:20 PM — Apr 19 2:50 PM, Naples, Weather by CustomWeather, © 2015

Note: Actual official high and low records may vary slightly from our data, if they occured in-between our weather recording intervals... More about our weather records

Advertising

Naples weather history for previous 24 hours

 ConditionsComfort  
Time TempWeatherWind HumidityBarometerVisibility
2:50 PM
Sun, Apr 19
66 °FPassing clouds.9 mph43%29.95 "HgN/A
2:20 PM68 °FPassing clouds.10 mph46%29.95 "HgN/A
1:50 PM66 °FPassing clouds.13 mph49%29.95 "HgN/A
1:20 PM66 °FPassing clouds.13 mph49%29.95 "HgN/A
12:50 PM64 °FPassing clouds.13 mph46%29.95 "HgN/A
12:20 PM64 °FPassing clouds.12 mph49%29.98 "HgN/A
11:50 AM64 °FPassing clouds.12 mph52%29.98 "HgN/A
11:20 AM64 °FPassing clouds.13 mph52%29.98 "HgN/A
10:50 AM64 °FSunny.10 mph52%29.98 "Hg10 mi
10:20 AM63 °FPassing clouds.9 mph56%29.95 "HgN/A
9:50 AM61 °FPassing clouds.8 mph59%29.95 "HgN/A
9:20 AM61 °FPassing clouds.10 mph55%29.95 "HgN/A
8:50 AM59 °FSunny.12 mph63%29.95 "Hg10 mi
8:20 AM57 °FPassing clouds.8 mph67%29.98 "HgN/A
7:50 AM57 °FPassing clouds.8 mph67%29.98 "HgN/A
7:20 AM55 °FPassing clouds.6 mph77%29.98 "HgN/A
6:50 AM55 °FClear.7 mph77%29.98 "Hg10 mi
6:20 AM55 °FClear.8 mph77%29.95 "Hg10 mi
5:50 AM55 °FClear.7 mph77%29.95 "Hg10 mi
4:50 AM55 °FClear.5 mph94%29.95 "Hg4 mi
4:20 AM55 °FClear.2 mph94%29.95 "Hg4 mi
3:50 AM55 °FClear.5 mph94%29.95 "Hg4 mi
3:20 AM55 °FClear.1 mph94%29.95 "Hg5 mi
2:50 AM57 °FClear.1 mph88%29.95 "Hg10 mi
2:20 AM57 °FClear.3 mph94%29.98 "Hg10 mi
1:50 AM57 °FClear.2 mph88%29.98 "Hg10 mi
1:20 AM57 °FClear.1 mph88%29.98 "Hg10 mi
12:50 AM57 °FClear.2 mph88%29.98 "Hg10 mi
12:20 AM57 °FClear.1 mph88%29.98 "Hg10 mi
11:50 PM
Sat, Apr 18
57 °FClear.No wind88%29.98 "Hg10 mi
11:20 PM57 °FClear.No wind88%29.95 "Hg10 mi
10:50 PM59 °FClear.No wind82%29.95 "Hg10 mi
10:20 PM59 °FPassing clouds.3 mph82%29.95 "HgN/A
9:50 PM59 °FPassing clouds.2 mph82%29.95 "HgN/A
9:20 PM59 °FPassing clouds.2 mph82%29.95 "HgN/A
8:50 PM61 °FPassing clouds.5 mph77%29.95 "HgN/A
8:20 PM61 °FScattered clouds.6 mph77%29.95 "HgN/A
7:50 PM61 °FScattered clouds.6 mph77%29.95 "HgN/A
7:20 PM63 °FPartly sunny.6 mph73%29.95 "HgN/A
6:50 PM63 °FPartly sunny.7 mph73%29.92 "HgN/A
6:20 PM64 °FPartly sunny.5 mph73%29.95 "HgN/A
5:50 PM64 °FPartly sunny.7 mph73%29.95 "HgN/A
5:20 PM66 °FPartly sunny.7 mph68%29.95 "HgN/A
4:50 PM64 °FBroken clouds.6 mph73%29.95 "HgN/A
4:20 PM64 °FBroken clouds.8 mph78%29.95 "HgN/A
Weather by CustomWeather, © 2015

See weather overviewHow to use our weather pages